Find Kosmos-1794

NORAD ID: 17138 Int'l Des: 1986-092 Owner: UNKS Country: SU operational
LEOCIRCULAR

Live Position

Loading 3D Globe...

About Kosmos-1794

Description loading...

Upcoming Passes

Passes for default location (London). Set your location on the main map for personalized predictions.

Altitude History

Loading altitude history...

Two-Line Element Set

1 17138U 86092A 26107.23110394 -.00000001 00000-0 99451-4 0 9998
2 17138 74.0148 192.1052 0020772 38.2639 351.1194 12.45669424791717
Epoch: Apr 17, 2026 • Age: 8 hours

Current Status

Altitude 1469.8 km
Velocity 7.14 km/s
Sub-Earth Point 30.53°N, 156.64°E
Launch Date Nov 21, 1986
Age 39.4 years
Type other

Technical Details

Classification Payload
Mass 60.00 kg
Dry Mass 60.00 kg
Total Mass 60.00 kg
Length 0.80 m
Diameter 0.80 m
Span 0.80 m
Shape Poly
Manufacturer NPOPM
Bus Type Strela-1 11F625
Phase Status In Orbit
Owner/State UNKS/SU

Most Searched